Zurück zum Katalog

COSMOS 2251 DEB

AktivLEO
NORAD 47051·DEBRIS·🇷🇺 Russia

Gestartet Jun 16, 1993 von Plesetsk Cosmodrome

Loading…

Nächste Überflüge (nächste 24 Stunden)

TLE

AktuellSource: Space-Track

Epoche: Sep 14, 2026, 05:51 UTC

1 47051U 93036BXF 26257.24411172  .00000994  00000-0  79613-3 0  9993
2 47051  74.0973  92.9523 0341784 141.9918 340.6720 13.67896745637047

Verfolge COSMOS 2251 DEB in Echtzeit mit AllMySat

Download on the App Store